Probability
0 0 0 0 0 0 0 0 0 0 0 0 0 0 0 0 0 0 0 0 0 0 0 0 0 0 0 0 0 0 0 0 0 0 0 0 0 0 0 0 0 0 0
0 0 0 0 0 0 0 0 0 0 0 0 0 0 0 0 0 0 0 0 0 0 0 0 0 0 0 0 0 0 0 0 0 0 0 0 0 0 0 0 0 0 0
0 0 0 0 0 0 0 0 0 0 0 0 0 0 0 0 0 0 0 0 0 0 0 0 0 0 0 0 0 0 0 0 0 0 0 0 0 0 0 0 0 0 0
0 0 0 0 0 0 0 0 0 0 0 0 0 0 0 0 0 0 0 0 0 0 0 0 0 0 0 0 0 0 0 0 0 0 0 0 0 0 0 0 0 0 0
0 0 0 0 0 0 0 0 0 0 0 0 0 0 0 0 0 0 0 0 0 0 0 0 0 0 0 0 0 0 0 0 0 0 0 0 0 0 0 0 0 0 0
0 0 0 0 0 0 0 0 0 0 0 0 0 0 0 0 0 0 0 0 0 0 0 0 0 0 0 0 0 0 0 0 0 0 0 0 0 0 0 0 0 0 0
0 0 0 0 0 0 0 0 0 0 0 0 0 0 0 0 0 0 0 0 0 0 0 0 0 0 0 0 0 0 0 0 0 0 0 0 0 0 0 0 0 0 0
0 0 0 0 0 0 0 0 0 0 0 0 0 0 0 0 0 0 0 0 0 0 0 0 0 0 0 0 0 0 0 0 0 0 0 0 0 0 0 0 0 0 0
0 0 0 0 0 0 0 0 0 0 0 0 0 0 0 0 0 0 0 0 0 0 0 0 0 0 0 0 0 0 0 0 0 0 0 0 0 0 0 0 0 0 0
0 0 0 0 0 0 0 0 0 0 0 0 0 0 0 0 0 0 0 0 0 0 0 0 0 0 0 0 0 0 0 0 0 0 0 0 0 0 0 0 0 0 0
0 0 0 0 0 0 0 0 0 0 0 0 0 0 0 0 0 0 0 0 0 0 0 0 0 0 0 0 0 0 0 0 0 0 0 0 0 0 0 0 0 0 0
0 0 0 0 0 0 0 0 0 0 0 0 0 0 0 0 0 0 0 0 0 0 0 0 0 0 0 0 0 0 0 0 0 0 0 0 0 0 0 0 0 0 0
0 0 0 0 0 0 0 0 0 0 0 0 0 0 0 0 0 0 0 0 0 0 0 0 0 0 0 0 0 0 0 0 0 0 0 0 0 0 0 0 0 0 0
0 0 0 0 0 0 0 0 0 0 0 0 0 0 0 0 0 0 0 0 0 0 0 0 0 0 0 0 0 0 0 0 0 0 0 0 0 0 0 0 0 0 0
0 0 0 0 0 0 0 0 0 0 0 0 0 0 0 0 0 0 0 0 0 0 0 0 0 0 0 0 0 0 0 0 0 0 0 0 0 0 0 0 0 0 0
0 0 0 0 0 0 0 0 0 0 0 0 0 0 0 0 0 0 0 0 0 0 0 0 0 0 0 0 0 0 0 0 0 0 0 0 0 0 0 0 0 0 0
0 0 0 0 0 0 0 0 0 0 0 0 0 0 0 0 0 0 0 0 0 0 0 0 0 0 0 0 0 0 0 0 0 0 0 0 0 0 0 0 0 0 0
0 0 0 0 0 0 0 0 0 0 0 0 0 0 0 0 0 0 0 0 0 0 0 0 0 0 0 0 0 0 0 0 0 0 0 0 0 0 0 0 0 0 0
0 0 0 0 0 0 0 0 0 0 0 0 0 0 0 0 0 0 0 0 0 0 0 0 0 0 0 0 0 0 0 0 0 0 0 0 0 0 0 0 0 0 0
0 0 0 0 0 0 0 0 0 0 0 0 0 0 0 0 0 0 0 0 0 0 0 0 0 0 0 0 0 0 0 0 0 0 0 0 0 0 0 0 0 0 0
0 0 0 0 0 0 0 0 0 0 0 0 0 0 0 0 0 0 0 0 0 0 0 0 0 0 0 0 0 0 0 0 0 0 0 0 0 0 0 0 0 0 0
0 0 0 0 0 0 0 0 0 0 0 0 0 0 0 0 0 0 0 0 0 0 0 0 0 0 0 0 0 0 0 0 0 0 0 0 0 0 0 0 0 0 0
0 0 0 0 0 0 0 0 0 0 0 0 0 0 0 0 0 0 0 0 0 0 0 0 0 0 0 0 0 0 0 0 0 0 0 0 0 0 0 0 0 0 0
0 0 0 0 0 0 0 0 0 0 0 0 0 0 0 0 0 0 0 0 0 0 0 0 0 0 0 0 0 0 0 0 0 0 0 0 0 0 0 0 0 0 0
0 0 0 0 0 0 0 0 0 0 0 0 0 0 0 0 0 0 0 0 0 0 0 0 0 0 0 0 0 0 0 0 0 0 0 0 0 0 0 0 0 0 0
0 0 0 0 0 0 0 0 0 0 0 0 0 0 0 0 0 0 0 0 0 0 0 0 0 0 0 0 0 0 0 0 0 0 0 0 0 0 0 0 0 0 0
Wind_Speed
4 4 3 3 3 3 2 2 1 1 1 2 3 4 4 5 4 4 3 5 7 9 10 11 12 13 13 14 15 15 16 16 16 16 17 17 17 18 18 18 18 19 19
4 4 4 3 3 2 2 1 0 1 1 2 3 4 4 4 4 4 3 3 6 8 11 12 12 13 14 14 15 16 17 17 17 18 18 19 19 19 20 20 20 20 20
6 5 4 4 3 3 2 2 1 1 2 2 3 4 3 3 3 3 3 3 4 6 10 12 13 13 14 15 16 16 17 18 18 19 19 20 20 20 21 21 21 21 21
7 5 4 4 4 3 3 2 2 2 2 2 3 3 3 2 2 3 3 4 4 4 7 11 12 13 14 15 16 17 18 18 19 20 20 20 21 21 21 22 22 22 22
8 6 5 4 5 4 3 3 3 2 2 3 3 3 2 1 2 2 4 5 5 6 5 7 9 12 14 16 17 18 18 19 19 20 20 20 21 21 21 22 22 23 23
9 8 5 6 6 4 4 4 4 2 2 2 2 2 1 1 1 2 3 4 5 6 6 6 5 7 12 16 18 18 19 19 19 20 20 20 20 21 21 22 22 23 23
10 9 6 7 6 6 6 5 4 4 2 1 2 1 1 1 2 2 3 3 5 6 6 7 6 6 6 12 17 19 19 20 20 20 20 20 21 21 22 22 23 23 24
11 9 10 7 7 6 6 6 5 3 2 2 2 2 1 2 3 2 2 3 4 4 6 6 7 7 6 6 11 18 19 19 20 20 20 21 21 22 22 23 23 24 24
12 11 11 9 8 8 7 7 7 6 4 3 2 2 2 1 0 2 2 2 3 3 4 5 7 7 8 7 8 14 19 19 20 20 20 21 21 22 23 23 24 24 24
13 12 11 11 9 8 8 7 7 6 5 4 3 2 2 2 2 1 2 2 3 3 4 4 5 7 7 6 8 14 17 18 18 19 20 20 21 22 22 23 23 24 25
12 12 12 10 10 8 8 8 8 7 5 5 4 3 3 2 3 3 3 1 1 2 3 4 4 5 6 7 7 13 16 17 17 18 19 19 20 21 22 23 23 24 25
9 12 11 10 10 8 9 8 8 8 6 6 4 4 4 3 4 4 4 3 2 1 2 3 4 5 5 6 9 13 14 16 17 17 18 18 19 20 21 22 23 24 24
9 11 11 10 9 9 8 8 7 7 7 7 6 4 4 3 2 3 3 2 2 1 1 2 3 4 5 5 6 12 10 15 16 16 17 18 19 19 20 22 23 23 24
10 12 12 11 10 9 8 8 6 6 6 6 6 6 4 3 3 3 3 3 3 3 3 2 2 3 4 5 8 10 7 13 14 15 16 17 18 19 19 21 22 23 24
9 12 12 11 10 10 9 8 6 7 7 6 6 6 5 4 3 3 3 3 3 3 2 2 1 2 3 4 7 7 7 11 12 13 15 16 17 18 19 20 21 22 24
11 12 12 11 10 10 9 8 7 7 8 7 6 7 6 5 4 4 3 2 2 2 2 1 1 2 3 3 6 6 6 9 8 12 14 15 15 16 18 19 20 22 23
12 12 12 12 11 11 10 9 9 10 10 8 7 8 8 7 5 4 4 3 3 2 2 1 1 1 2 4 5 5 5 6 5 10 13 14 14 15 16 18 19 21 22
12 12 12 12 11 11 11 11 11 11 11 11 10 9 9 7 7 5 4 4 3 2 2 2 1 1 2 3 5 5 5 5 6 9 11 12 13 14 15 16 18 20 20
12 11 12 12 12 12 11 11 11 11 10 10 11 10 10 10 8 6 6 5 4 3 2 2 2 1 2 3 5 4 5 5 5 6 8 10 11 12 13 15 16 18 19
12 13 12 12 12 12 12 11 11 11 10 10 9 9 10 9 9 9 6 6 5 4 3 2 2 2 2 2 3 4 5 5 6 4 6 8 9 9 10 12 14 16 18
11 11 11 10 11 10 11 13 12 12 12 11 9 8 8 7 8 7 6 6 6 4 3 3 2 2 2 2 3 4 5 6 6 2 6 6 6 5 5 8 11 15 17
9 10 11 12 12 9 14 17 14 12 11 12 11 9 8 8 9 9 8 7 6 5 4 3 2 2 2 2 3 4 5 5 4 3 6 6 4 5 4 4 10 14 16
10 10 10 11 11 12 20 19 16 12 12 11 11 10 7 7 8 7 8 8 6 5 5 4 4 4 3 2 3 4 4 5 5 5 6 5 4 5 4 4 9 12 14
10 10 10 11 10 13 20 20 17 11 10 10 10 10 10 10 8 8 7 6 5 5 5 4 4 3 3 3 3 4 4 5 6 3 2 4 4 5 5 4 6 10 12
8 8 9 10 11 13 19 21 18 10 9 9 8 9 9 9 12 12 8 7 6 4 4 4 4 4 4 3 3 2 3 3 4 2 0 3 4 5 5 3 3 7 10
8 8 8 8 10 12 19 21 18 9 9 8 7 7 8 10 12 13 8 7 7 6 4 3 4 4 3 3 3 3 3 3 3 3 0 2 3 4 5 2 3 4 5
Wind_Direction
160 156 152 154 150 144 143 132 109 79 37 16 3 350 351 351 351 353 14 35 16 15 14 13 12 10 10 8 6 6 4 4 4 2 359 356 352 349 344 338 333 328 324
171 168 166 168 167 164 155 154 84 359 347 340 336 341 339 343 350 355 8 51 50 29 24 22 19 17 16 14 12 10 8 8 7 5 1 358 354 350 347 343 340 336 331
183 182 180 181 178 177 183 203 220 266 301 315 323 335 336 343 350 8 24 32 50 52 39 30 27 24 22 19 16 14 11 10 8 6 2 359 355 351 348 344 342 338 335
193 191 192 191 185 191 204 215 239 267 283 309 322 334 335 347 13 34 46 49 43 40 50 42 33 29 26 23 20 16 14 12 10 7 3 359 355 352 349 346 343 340 337
198 200 200 195 190 197 208 211 235 260 289 306 323 327 338 5 51 68 66 62 53 42 41 49 44 37 32 27 22 18 15 13 10 6 2 358 355 352 350 346 343 341 338
199 203 204 200 196 201 206 211 220 225 272 302 304 303 351 40 89 86 79 73 59 49 42 34 36 45 39 32 25 20 15 12 9 6 2 359 356 352 349 346 344 342 340
199 202 203 202 200 208 211 209 210 220 230 254 277 281 161 121 103 96 85 72 63 54 45 38 37 30 31 37 30 22 16 12 9 7 3 360 356 354 351 349 347 344 341
202 203 206 203 201 206 208 202 202 210 202 203 260 277 240 172 138 112 89 69 59 53 49 45 44 39 32 32 29 23 16 12 9 6 3 360 357 355 353 350 347 345 342
205 202 207 205 202 203 207 202 200 207 212 194 222 253 265 243 174 153 117 84 60 48 49 53 50 45 39 35 26 21 15 12 9 6 3 360 358 356 353 350 348 345 344
207 204 205 205 204 203 207 203 199 204 210 203 190 224 261 293 264 232 161 118 69 46 47 55 54 48 39 37 32 21 13 11 8 5 2 360 357 355 352 350 348 347 345
207 205 204 204 204 204 205 198 195 198 201 205 191 180 193 208 237 252 259 247 82 65 52 57 55 46 38 31 27 15 10 8 6 4 2 360 357 354 352 351 350 349 346
202 205 202 204 203 200 201 198 194 192 193 195 190 188 189 188 192 208 242 263 285 69 75 67 58 46 33 23 27 9 7 5 3 2 1 359 357 355 354 352 351 349 348
200 201 198 200 200 198 194 188 185 185 188 186 186 185 189 191 174 189 225 240 247 224 167 112 67 46 29 16 15 359 5 3 360 0 360 358 357 356 355 353 352 350 349
201 198 195 195 193 188 183 179 175 174 176 175 172 169 160 155 164 178 197 203 219 215 215 181 120 51 21 11 5 349 357 1 355 357 358 357 358 357 356 353 352 351 349
194 192 187 185 184 180 175 168 166 165 162 159 156 150 142 138 141 151 165 197 219 222 208 171 170 67 13 1 355 346 347 354 350 354 356 357 357 357 355 354 354 353 351
189 184 181 178 175 172 166 161 154 158 153 147 146 146 141 139 136 140 150 166 210 233 219 172 173 22 357 345 349 341 344 339 349 351 352 354 356 357 356 355 356 355 352
185 183 178 172 170 167 162 159 157 157 153 147 147 148 146 147 146 145 149 156 167 200 215 187 206 333 318 336 342 341 338 340 345 348 348 352 354 356 356 356 357 356 356
182 179 172 169 167 164 163 161 159 161 158 156 156 154 152 152 151 151 155 160 161 176 206 215 215 273 298 330 332 332 337 336 338 341 345 350 352 353 355 356 358 358 360
174 170 170 170 167 164 162 162 159 160 160 158 159 161 159 159 160 160 162 162 159 164 188 212 235 264 286 323 323 324 331 331 336 334 340 347 347 349 352 356 358 359 1
172 171 171 169 164 161 159 156 155 154 153 152 156 159 162 167 165 164 163 164 163 168 181 208 231 253 279 319 315 327 328 334 330 324 336 337 338 337 346 351 358 1 1
170 165 160 158 157 157 161 158 155 154 152 150 152 156 159 158 160 163 164 167 170 175 185 204 225 249 277 314 326 329 320 324 321 322 330 324 323 328 339 345 353 359 0
156 156 158 158 161 163 162 159 153 153 154 155 155 154 151 155 160 164 169 173 178 182 188 203 220 244 268 289 310 313 319 325 318 343 328 312 312 318 333 337 348 355 359
158 160 159 160 162 161 161 158 153 152 156 160 159 158 159 164 167 167 171 175 181 197 205 216 230 239 257 268 288 294 298 299 294 319 322 299 310 311 327 323 339 353 357
162 159 159 161 155 160 162 157 151 149 152 157 162 164 164 168 176 173 172 177 186 197 203 215 230 242 252 261 260 274 288 286 279 273 303 290 310 312 313 307 332 350 355
158 156 158 158 155 158 163 158 153 148 149 155 160 166 169 172 179 181 178 182 192 202 207 214 228 240 247 247 253 256 268 287 293 287 300 294 306 313 302 291 324 342 350
154 149 151 158 157 158 165 164 158 152 153 156 162 169 179 181 184 188 187 188 198 199 195 205 216 226 230 232 235 241 253 268 282 286 107 299 299 317 303 290 311 329 337